QPF
0.00 0.00 0.00 0.00 0.00 0.00 0.00 0.00 0.00 0.00 0.00 0.00 0.00 0.00 0.00 0.00 0.00 0.00 0.00 0.00 0.00 0.00 0.00 0.00 0.01 0.01 0.01 0.01 0.02 0.02 0.03 0.03 0.04 0.04 0.05 0.05 0.06 0.06
0.00 0.00 0.00 0.00 0.00 0.00 0.00 0.00 0.00 0.00 0.00 0.00 0.00 0.00 0.00 0.00 0.00 0.00 0.00 0.00 0.00 0.00 0.00 0.00 0.00 0.01 0.01 0.01 0.02 0.02 0.02 0.03 0.04 0.04 0.05 0.06 0.06 0.07
0.00 0.00 0.00 0.00 0.00 0.00 0.00 0.00 0.00 0.00 0.00 0.00 0.00 0.00 0.00 0.00 0.00 0.00 0.00 0.00 0.00 0.00 0.00 0.00 0.00 0.01 0.01 0.01 0.01 0.02 0.02 0.03 0.03 0.04 0.04 0.04 0.05 0.05
0.00 0.00 0.00 0.00 0.00 0.00 0.00 0.00 0.00 0.00 0.00 0.00 0.00 0.00 0.00 0.00 0.00 0.00 0.00 0.00 0.00 0.00 0.00 0.00 0.00 0.00 0.00 0.01 0.01 0.01 0.02 0.02 0.02 0.02 0.02 0.02 0.03 0.03
0.00 0.00 0.00 0.00 0.00 0.00 0.00 0.00 0.00 0.00 0.00 0.00 0.00 0.00 0.00 0.00 0.00 0.00 0.00 0.00 0.00 0.00 0.00 0.00 0.00 0.00 0.00 0.01 0.01 0.01 0.01 0.01 0.01 0.01 0.01 0.02 0.02 0.02
0.00 0.00 0.00 0.00 0.00 0.00 0.00 0.00 0.00 0.00 0.00 0.00 0.00 0.00 0.00 0.00 0.00 0.00 0.00 0.00 0.00 0.00 0.00 0.00 0.00 0.00 0.00 0.00 0.00 0.00 0.00 0.00 0.00 0.01 0.02 0.02 0.02 0.03
0.00 0.00 0.00 0.00 0.00 0.00 0.00 0.00 0.00 0.00 0.00 0.00 0.00 0.00 0.00 0.00 0.00 0.00 0.00 0.00 0.00 0.00 0.00 0.00 0.00 0.00 0.00 0.00 0.00 0.00 0.00 0.00 0.01 0.01 0.02 0.02 0.02 0.03
0.00 0.00 0.00 0.00 0.00 0.00 0.00 0.00 0.00 0.00 0.00 0.00 0.01 0.01 0.00 0.00 0.00 0.00 0.00 0.01 0.01 0.00 0.00 0.00 0.00 0.00 0.00 0.00 0.00 0.00 0.00 0.00 0.01 0.01 0.01 0.02 0.02 0.02
0.00 0.00 0.00 0.00 0.00 0.00 0.00 0.00 0.00 0.00 0.00 0.00 0.00 0.00 0.00 0.00 0.00 0.01 0.02 0.02 0.01 0.00 0.00 0.00 0.00 0.00 0.00 0.00 0.00 0.00 0.00 0.00 0.00 0.01 0.01 0.01 0.02 0.02
0.00 0.00 0.00 0.00 0.00 0.00 0.00 0.00 0.00 0.00 0.00 0.00 0.00 0.00 0.00 0.00 0.01 0.03 0.03 0.02 0.01 0.00 0.00 0.00 0.00 0.00 0.00 0.00 0.00 0.00 0.00 0.00 0.00 0.00 0.00 0.01 0.01 0.01
0.00 0.00 0.00 0.00 0.00 0.00 0.00 0.00 0.00 0.00 0.00 0.00 0.00 0.00 0.00 0.00 0.00 0.00 0.01 0.02 0.01 0.00 0.00 0.00 0.00 0.00 0.00 0.00 0.00 0.00 0.00 0.00 0.00 0.00 0.00 0.00 0.01 0.01
0.00 0.00 0.00 0.00 0.00 0.00 0.00 0.01 0.00 0.00 0.00 0.00 0.00 0.00 0.00 0.00 0.00 0.00 0.01 0.04 0.04 0.02 0.00 0.01 0.01 0.01 0.02 0.00 0.00 0.00 0.00 0.00 0.00 0.00 0.00 0.00 0.00 0.01
0.00 0.00 0.00 0.00 0.00 0.01 0.01 0.00 0.00 0.00 0.00 0.00 0.00 0.00 0.00 0.00 0.00 0.00 0.00 0.03 0.06 0.04 0.00 0.04 0.05 0.02 0.03 0.01 0.00 0.00 0.00 0.00 0.00 0.00 0.00 0.00 0.00 0.01
0.00 0.00 0.00 0.00 0.00 0.00 0.00 0.00 0.00 0.00 0.00 0.00 0.00 0.00 0.00 0.00 0.00 0.00 0.00 0.00 0.02 0.02 0.01 0.04 0.08 0.05 0.05 0.03 0.00 0.00 0.00 0.00 0.00 0.00 0.00 0.00 0.00 0.00
0.00 0.00 0.00 0.00 0.00 0.00 0.00 0.00 0.00 0.00 0.00 0.00 0.00 0.00 0.00 0.00 0.00 0.00 0.00 0.00 0.00 0.00 0.00 0.00 0.03 0.04 0.06 0.05 0.02 0.00 0.00 0.00 0.00 0.00 0.00 0.00 0.00 0.00
0.00 0.00 0.00 0.00 0.00 0.00 0.00 0.00 0.00 0.00 0.00 0.00 0.00 0.00 0.00 0.00 0.00 0.00 0.00 0.01 0.01 0.00 0.00 0.00 0.00 0.02 0.04 0.03 0.03 0.02 0.00 0.00 0.00 0.00 0.00 0.00 0.00 0.00
0.00 0.00 0.00 0.00 0.00 0.00 0.00 0.00 0.00 0.00 0.00 0.00 0.01 0.01 0.00 0.00 0.00 0.00 0.00 0.01 0.02 0.01 0.00 0.00 0.00 0.00 0.01 0.02 0.02 0.01 0.00 0.00 0.00 0.00 0.01 0.01 0.00 0.00
0.00 0.00 0.00 0.00 0.00 0.00 0.00 0.00 0.00 0.00 0.00 0.01 0.01 0.01 0.01 0.01 0.01 0.00 0.00 0.01 0.01 0.01 0.00 0.00 0.01 0.01 0.01 0.00 0.00 0.00 0.00 0.00 0.00 0.00 0.01 0.02 0.01 0.00
0.00 0.00 0.00 0.00 0.00 0.00 0.00 0.00 0.00 0.00 0.00 0.01 0.01 0.01 0.02 0.01 0.01 0.01 0.01 0.01 0.01 0.01 0.00 0.00 0.02 0.06 0.06 0.02 0.00 0.00 0.01 0.03 0.02 0.01 0.01 0.02 0.02 0.00
0.00 0.00 0.00 0.00 0.00 0.00 0.00 0.01 0.01 0.00 0.01 0.01 0.01 0.01 0.02 0.02 0.02 0.01 0.01 0.02 0.02 0.02 0.01 0.00 0.01 0.05 0.10 0.07 0.04 0.00 0.00 0.03 0.07 0.07 0.02 0.01 0.01 0.00
0.00 0.00 0.00 0.00 0.00 0.01 0.01 0.01 0.01 0.01 0.01 0.01 0.01 0.01 0.02 0.03 0.03 0.02 0.02 0.02 0.02 0.02 0.02 0.01 0.00 0.01 0.05 0.07 0.04 0.01 0.00 0.00 0.04 0.12 0.12 0.09 0.05 0.02
0.00 0.00 0.00 0.00 0.01 0.01 0.01 0.01 0.01 0.01 0.01 0.01 0.01 0.02 0.02 0.03 0.04 0.03 0.03 0.03 0.02 0.02 0.02 0.01 0.00 0.01 0.03 0.07 0.05 0.01 0.00 0.00 0.00 0.01 0.06 0.12 0.17 0.13
0.00 0.00 0.00 0.00 0.01 0.01 0.01 0.01 0.01 0.01 0.01 0.02 0.02 0.02 0.02 0.03 0.03 0.03 0.03 0.03 0.03 0.03 0.02 0.01 0.00 0.00 0.01 0.04 0.05 0.03 0.02 0.01 0.01 0.01 0.00 0.01 0.04 0.07
MSLP
1020.41 1020.89 1021.36 1021.79 1022.17 1022.46 1022.66 1022.76 1022.77 1022.70 1022.58 1022.39 1022.16 1021.87 1021.53 1021.13 1020.67 1020.15 1019.58 1018.98 1018.37 1017.77 1017.20 1016.66 1016.16 1015.68 1015.22 1014.77 1014.31 1013.84 1013.37 1012.90 1012.45 1012.02 1011.63 1011.26 1010.92 1010.59
1020.56 1020.97 1021.36 1021.72 1022.03 1022.27 1022.43 1022.51 1022.51 1022.44 1022.32 1022.14 1021.91 1021.62 1021.26 1020.83 1020.33 1019.77 1019.17 1018.53 1017.89 1017.27 1016.69 1016.14 1015.64 1015.16 1014.70 1014.25 1013.78 1013.29 1012.80 1012.30 1011.80 1011.33 1010.89 1010.49 1010.12 1009.77
1020.67 1021.00 1021.31 1021.58 1021.80 1021.97 1022.08 1022.13 1022.12 1022.05 1021.94 1021.77 1021.54 1021.25 1020.89 1020.44 1019.92 1019.33 1018.69 1018.02 1017.36 1016.71 1016.10 1015.54 1015.03 1014.54 1014.08 1013.61 1013.13 1012.63 1012.11 1011.59 1011.07 1010.57 1010.10 1009.67 1009.27 1008.91
1020.77 1021.01 1021.22 1021.40 1021.53 1021.63 1021.68 1021.68 1021.65 1021.58 1021.46 1021.30 1021.08 1020.80 1020.43 1019.98 1019.44 1018.83 1018.16 1017.47 1016.77 1016.09 1015.45 1014.87 1014.32 1013.82 1013.34 1012.86 1012.36 1011.86 1011.33 1010.79 1010.27 1009.75 1009.27 1008.82 1008.42 1008.04
1020.86 1021.02 1021.14 1021.22 1021.27 1021.28 1021.27 1021.23 1021.16 1021.06 1020.93 1020.77 1020.55 1020.26 1019.89 1019.43 1018.89 1018.26 1017.58 1016.86 1016.13 1015.42 1014.75 1014.13 1013.55 1013.02 1012.51 1012.01 1011.50 1010.98 1010.45 1009.92 1009.39 1008.89 1008.40 1007.96 1007.55 1007.17
1020.95 1021.03 1021.07 1021.07 1021.03 1020.97 1020.89 1020.79 1020.67 1020.53 1020.38 1020.19 1019.95 1019.65 1019.28 1018.81 1018.26 1017.63 1016.94 1016.21 1015.46 1014.72 1014.02 1013.36 1012.75 1012.17 1011.63 1011.10 1010.57 1010.04 1009.51 1008.99 1008.47 1007.98 1007.51 1007.08 1006.68 1006.30
1021.03 1021.04 1021.01 1020.94 1020.83 1020.70 1020.54 1020.37 1020.19 1020.00 1019.79 1019.56 1019.30 1018.98 1018.59 1018.12 1017.57 1016.95 1016.26 1015.53 1014.78 1014.03 1013.30 1012.61 1011.95 1011.34 1010.75 1010.18 1009.63 1009.08 1008.55 1008.02 1007.51 1007.03 1006.58 1006.16 1005.77 1005.40
1021.08 1021.04 1020.95 1020.81 1020.64 1020.44 1020.21 1019.97 1019.71 1019.45 1019.18 1018.90 1018.59 1018.24 1017.84 1017.37 1016.83 1016.23 1015.56 1014.85 1014.11 1013.36 1012.62 1011.91 1011.22 1010.56 1009.92 1009.31 1008.72 1008.14 1007.59 1007.05 1006.54 1006.06 1005.62 1005.20 1004.82 1004.45
1021.08 1020.98 1020.84 1020.65 1020.42 1020.15 1019.86 1019.54 1019.22 1018.88 1018.55 1018.21 1017.85 1017.47 1017.05 1016.59 1016.07 1015.50 1014.87 1014.19 1013.48 1012.75 1012.02 1011.29 1010.57 1009.87 1009.19 1008.53 1007.88 1007.26 1006.67 1006.10 1005.57 1005.08 1004.62 1004.20 1003.81 1003.44
1020.99 1020.85 1020.66 1020.42 1020.14 1019.82 1019.47 1019.09 1018.69 1018.29 1017.89 1017.50 1017.10 1016.69 1016.27 1015.82 1015.33 1014.80 1014.22 1013.59 1012.93 1012.23 1011.51 1010.78 1010.04 1009.30 1008.57 1007.85 1007.15 1006.47 1005.82 1005.20 1004.63 1004.10 1003.61 1003.17 1002.76 1002.38
1020.80 1020.61 1020.38 1020.11 1019.79 1019.43 1019.03 1018.60 1018.16 1017.70 1017.25 1016.81 1016.38 1015.96 1015.54 1015.10 1014.65 1014.16 1013.63 1013.06 1012.44 1011.78 1011.08 1010.35 1009.60 1008.84 1008.06 1007.28 1006.51 1005.77 1005.05 1004.37 1003.73 1003.15 1002.62 1002.14 1001.70 1001.29
1020.52 1020.29 1020.03 1019.73 1019.38 1019.00 1018.57 1018.11 1017.64 1017.15 1016.67 1016.20 1015.75 1015.32 1014.90 1014.49 1014.06 1013.61 1013.12 1012.59 1012.01 1011.38 1010.71 1009.98 1009.22 1008.42 1007.60 1006.77 1005.94 1005.13 1004.34 1003.59 1002.89 1002.24 1001.66 1001.13 1000.65 1000.22
1020.19 1019.93 1019.64 1019.32 1018.97 1018.57 1018.13 1017.67 1017.18 1016.68 1016.19 1015.71 1015.25 1014.82 1014.40 1013.99 1013.57 1013.14 1012.67 1012.17 1011.61 1011.00 1010.33 1009.60 1008.82 1008.00 1007.15 1006.27 1005.39 1004.51 1003.66 1002.84 1002.08 1001.37 1000.73 1000.15 999.64 999.17
1019.86 1019.58 1019.28 1018.96 1018.60 1018.20 1017.77 1017.31 1016.82 1016.33 1015.84 1015.35 1014.89 1014.45 1014.02 1013.60 1013.18 1012.74 1012.27 1011.75 1011.18 1010.56 1009.88 1009.14 1008.34 1007.50 1006.62 1005.71 1004.78 1003.86 1002.96 1002.09 1001.27 1000.51 999.82 999.19 998.64 998.14
1019.58 1019.30 1019.00 1018.68 1018.33 1017.94 1017.52 1017.08 1016.60 1016.11 1015.62 1015.14 1014.67 1014.21 1013.75 1013.30 1012.84 1012.36 1011.85 1011.29 1010.68 1010.03 1009.31 1008.54 1007.72 1006.86 1005.96 1005.03 1004.08 1003.13 1002.19 1001.29 1000.42 999.62 998.88 998.21 997.61 997.09
1019.41 1019.13 1018.84 1018.52 1018.19 1017.81 1017.41 1016.97 1016.50 1016.02 1015.52 1015.03 1014.53 1014.04 1013.54 1013.03 1012.50 1011.95 1011.37 1010.74 1010.07 1009.35 1008.59 1007.78 1006.94 1006.05 1005.13 1004.19 1003.23 1002.27 1001.31 1000.38 999.48 998.64 997.85 997.14 996.51 995.94
1019.36 1019.09 1018.81 1018.50 1018.17 1017.80 1017.40 1016.96 1016.49 1015.99 1015.48 1014.96 1014.42 1013.87 1013.30 1012.72 1012.11 1011.47 1010.79 1010.07 1009.32 1008.54 1007.71 1006.86 1005.98 1005.08 1004.15 1003.20 1002.23 1001.26 1000.29 999.33 998.40 997.52 996.69 995.93 995.25 994.64
1019.43 1019.17 1018.89 1018.59 1018.25 1017.87 1017.45 1016.99 1016.50 1015.97 1015.42 1014.84 1014.25 1013.63 1012.98 1012.31 1011.61 1010.87 1010.09 1009.29 1008.45 1007.59 1006.71 1005.82 1004.91 1003.98 1003.04 1002.08 1001.11 1000.13 999.14 998.15 997.18 996.25 995.37 994.55 993.80 993.14
1019.57 1019.31 1019.03 1018.72 1018.36 1017.96 1017.50 1017.00 1016.45 1015.87 1015.26 1014.62 1013.95 1013.26 1012.53 1011.77 1010.98 1010.15 1009.29 1008.41 1007.50 1006.59 1005.66 1004.73 1003.79 1002.85 1001.89 1000.92 999.93 998.92 997.90 996.87 995.85 994.86 993.90 993.01 992.20 991.47
1019.73 1019.47 1019.18 1018.84 1018.45 1017.99 1017.48 1016.91 1016.30 1015.65 1014.96 1014.25 1013.51 1012.74 1011.94 1011.10 1010.24 1009.35 1008.43 1007.49 1006.54 1005.58 1004.63 1003.67 1002.71 1001.75 1000.78 999.79 998.77 997.72 996.65 995.56 994.47 993.40 992.36 991.39 990.50 989.71
1019.86 1019.59 1019.27 1018.90 1018.45 1017.93 1017.35 1016.70 1016.01 1015.28 1014.52 1013.73 1012.92 1012.08 1011.22 1010.34 1009.43 1008.50 1007.55 1006.59 1005.62 1004.66 1003.69 1002.72 1001.76 1000.78 999.79 998.77 997.71 996.61 995.48 994.32 993.14 991.98 990.86 989.81 988.84 987.98
1019.93 1019.64 1019.29 1018.86 1018.35 1017.75 1017.09 1016.36 1015.59 1014.77 1013.94 1013.08 1012.21 1011.33 1010.44 1009.53 1008.61 1007.67 1006.73 1005.77 1004.82 1003.86 1002.90 1001.94 1000.97 999.98 998.97 997.91 996.81 995.65 994.45 993.22 991.97 990.72 989.52 988.39 987.36 986.45
1019.93 1019.61 1019.20 1018.71 1018.13 1017.46 1016.72 1015.91 1015.06 1014.17 1013.27 1012.37 1011.46 1010.55 1009.65 1008.74 1007.83 1006.92 1006.00 1005.08 1004.15 1003.22 1002.29 1001.34 1000.38 999.38 998.35 997.26 996.12 994.91 993.65 992.35 991.03 989.72 988.46 987.27 986.19 985.25
Thickness
5530 5525 5519 5513 5507 5501 5494 5487 5479 5474 5475 5475 5469 5466 5460 5456 5451 5448 5444 5440 5438 5436 5433 5430 5428 5425 5422 5420 5417 5414 5410 5408 5405 5403 5401 5400 5400 5399
5520 5514 5508 5502 5496 5490 5483 5476 5468 5461 5459 5459 5455 5451 5447 5442 5437 5434 5429 5426 5422 5418 5415 5412 5409 5405 5402 5398 5394 5391 5387 5384 5382 5380 5379 5378 5378 5378
5510 5504 5498 5492 5485 5478 5472 5464 5457 5449 5447 5448 5441 5436 5431 5426 5423 5418 5414 5410 5405 5400 5396 5392 5388 5384 5379 5375 5371 5368 5365 5362 5361 5360 5359 5359 5360 5361
5499 5493 5486 5480 5474 5467 5460 5453 5446 5439 5433 5433 5429 5422 5416 5410 5407 5403 5398 5393 5387 5381 5376 5372 5367 5362 5357 5353 5350 5348 5346 5345 5344 5344 5344 5345 5346 5349
5487 5481 5474 5468 5462 5456 5449 5441 5435 5429 5422 5417 5415 5408 5402 5395 5391 5387 5381 5374 5366 5360 5355 5351 5346 5342 5338 5336 5334 5332 5331 5330 5330 5331 5332 5334 5337 5340
5474 5468 5462 5457 5451 5444 5437 5430 5423 5416 5408 5402 5400 5395 5388 5381 5373 5369 5367 5358 5349 5340 5336 5332 5329 5325 5322 5320 5319 5318 5318 5319 5320 5323 5325 5328 5330 5333
5462 5456 5451 5445 5440 5434 5427 5420 5412 5403 5395 5390 5386 5381 5374 5364 5356 5350 5346 5344 5336 5324 5322 5318 5313 5312 5309 5307 5307 5307 5309 5311 5314 5316 5318 5321 5324 5327
5449 5444 5438 5433 5427 5421 5415 5408 5400 5391 5383 5376 5370 5362 5355 5345 5339 5331 5326 5325 5325 5313 5307 5308 5301 5302 5301 5299 5298 5300 5302 5305 5307 5309 5311 5314 5317 5320
5437 5431 5426 5419 5412 5406 5400 5394 5385 5376 5368 5360 5352 5343 5336 5329 5322 5317 5310 5306 5305 5298 5293 5300 5296 5296 5294 5292 5291 5293 5295 5298 5300 5303 5305 5307 5310 5313
5426 5419 5413 5406 5399 5395 5389 5381 5372 5362 5353 5344 5336 5329 5320 5313 5305 5301 5296 5294 5293 5287 5281 5286 5290 5290 5290 5286 5283 5285 5289 5292 5294 5296 5298 5300 5303 5306
5414 5407 5401 5394 5389 5384 5377 5369 5360 5350 5340 5330 5322 5314 5307 5299 5292 5287 5282 5279 5282 5282 5272 5272 5279 5280 5284 5282 5278 5277 5280 5282 5285 5288 5291 5294 5297 5301
5403 5395 5388 5382 5377 5370 5362 5354 5346 5337 5328 5319 5308 5299 5291 5284 5278 5272 5267 5264 5265 5269 5267 5261 5263 5261 5274 5280 5272 5268 5269 5273 5277 5282 5285 5289 5292 5296
5391 5384 5376 5371 5365 5357 5349 5339 5330 5324 5315 5303 5294 5288 5282 5275 5269 5263 5256 5250 5250 5252 5252 5248 5251 5248 5247 5263 5268 5263 5263 5268 5272 5276 5280 5284 5288 5292
5380 5372 5365 5360 5352 5344 5334 5325 5317 5308 5296 5288 5282 5277 5273 5267 5262 5256 5250 5245 5241 5240 5241 5236 5237 5238 5240 5247 5255 5261 5260 5263 5268 5273 5278 5282 5285 5290
5368 5362 5355 5347 5338 5327 5318 5310 5301 5290 5283 5277 5273 5270 5265 5260 5255 5252 5248 5243 5240 5236 5234 5232 5230 5231 5231 5236 5244 5252 5257 5264 5267 5273 5276 5279 5283 5287
5356 5348 5340 5330 5321 5313 5304 5294 5287 5280 5275 5271 5267 5264 5260 5255 5250 5245 5241 5238 5238 5240 5235 5231 5229 5228 5230 5234 5239 5248 5254 5260 5269 5270 5275 5281 5285 5289
5345 5334 5324 5315 5306 5298 5291 5285 5280 5274 5269 5266 5262 5259 5255 5251 5246 5241 5236 5233 5231 5234 5238 5237 5233 5232 5233 5235 5242 5251 5258 5264 5269 5273 5277 5285 5292 5294
5329 5318 5309 5300 5292 5286 5281 5278 5274 5270 5266 5262 5258 5254 5250 5247 5244 5240 5235 5232 5231 5233 5235 5237 5238 5241 5243 5248 5250 5255 5261 5267 5274 5277 5281 5288 5299 5302
5314 5305 5296 5289 5283 5279 5275 5272 5270 5267 5263 5259 5255 5251 5247 5244 5241 5239 5237 5235 5235 5236 5238 5239 5240 5242 5247 5257 5264 5265 5267 5274 5279 5284 5288 5293 5302 5308
5303 5294 5287 5282 5278 5275 5272 5270 5267 5265 5261 5257 5254 5250 5247 5244 5242 5241 5240 5239 5240 5243 5246 5247 5246 5247 5250 5258 5268 5275 5276 5278 5283 5289 5295 5300 5305 5310
5293 5286 5281 5277 5274 5272 5270 5267 5265 5262 5260 5256 5254 5251 5249 5247 5246 5246 5245 5246 5247 5248 5251 5255 5257 5257 5259 5263 5270 5282 5286 5286 5287 5291 5297 5302 5308 5313
5285 5280 5277 5274 5272 5270 5268 5266 5264 5262 5260 5258 5256 5254 5253 5251 5251 5251 5251 5252 5254 5255 5257 5261 5264 5265 5266 5269 5275 5282 5290 5294 5297 5299 5301 5304 5306 5313
5279 5276 5274 5273 5271 5270 5267 5265 5263 5263 5262 5260 5259 5259 5258 5257 5257 5257 5258 5259 5260 5262 5264 5268 5271 5272 5273 5274 5277 5283 5289 5295 5300 5304 5309 5311 5312 5314